Погода в Гверу

Зимбабве     19°28′36″S   29°47′48″E
темп.,
°C
ветер,
м/с
пор.,
м/с
влажн.,
%
обл.,
%
осадки,
мм/ч
давл.,
гПа
погр.,
м
23 апреля, пт
пт2323:00+13вюв39840 0.0 1020177
02:00+12вюв36870 0.0 1020102
05:00+12вюв23930 0.0 101945
08:00+17вюв34680 0.0 1020324
11:00+25юв224120 0.0 10171754
14:00+26ююз2331100 0.0 10133059
17:00+22юв36432 0.0 1013350
20:00+18юв275098 0.0 1016180
24 апреля, сб
сб2423:00+18вюв3945100 0.0 1017299
02:00+15вюв355413 0.0 1017117
05:00+13в34620 0.0 101756
08:00+18всв355188 0.0 1018279
11:00+25ссв23353 0.0 10162301
14:00+28ссв012699 0.0 10123063
17:00+21ссз2544100 0.0 1013118
20:00+20в344599 0.0 101585
25 апреля, вс
вс2523:00+16юв35484 0.0 101673
02:00+15в365960 0.0 1017111
05:00+14в226527 0.0 101721
08:00+17ссв376199 0.1 1019206
11:00+25с22375 0.0 10161742
14:00+26ююв112892 0.0 10132771
17:00+23ссв123886 0.0 101318
20:00+19ссз38509 0.0 1016199
26 апреля, пн
пн2623:00+17с22596 0.0 101729
02:00+15в22658 0.0 101712
05:00+14св11680 0.0 101711
08:00+19с46580 0.0 1018257
11:00+27ссв22243 0.0 10152591
14:00+29юв11195 0.0 10113422
17:00+25юв472598 0.0 1012416
20:00+18юв36345 0.0 101588
27 апреля, вт
вт2723:00+17вюв38398 0.0 1016149
02:00+16в39465 0.0 1015148
05:00+15св33490 0.0 101641
08:00+19ссв37450 0.0 1016255
11:00+27ссз23292 0.0 10142700
14:00+29ююв212113 0.0 10113327
17:00+25юв362872 0.0 1011177
20:00+19вюв3103360 0.0 1015168